CAPE
587 1384 1682 1679 1558 1434 1399 1441 1464 1560 1688 1670 1687 1756 1796 1843 1859 1884 1597 1455 1690 1722 1271 957 618 403 607 824 972 1150 1331 1386 1381 1422 1389 999 840 900 795 726 594 445 569
700 1379 1536 1577 1594 1568 1606 1585 1548 1625 1677 1706 1660 1698 1733 1789 1779 1749 1738 1712 1938 1636 1294 1015 673 958 1107 1047 947 778 845 904 1003 1221 1216 809 657 1045 814 637 583 359 370
666 870 1501 1462 1592 1677 1801 1772 1694 1730 1678 1675 1701 1716 1763 1737 1747 1734 1656 1676 1757 1427 1261 1010 715 1056 1122 1034 1054 1093 834 558 637 566 266 108 313 294 568 520 462 337 272
1039 1026 1386 1435 1529 1607 1594 1579 1632 1706 1646 1740 1772 1769 1768 1762 1684 1652 1630 1535 1598 1323 1101 961 725 868 866 795 721 700 658 550 467 428 176 116 47 355 162 209 192 151 136
942 1017 1230 1282 1360 1504 1502 1464 1418 1391 1368 1523 1715 1828 1751 1636 1473 1519 1414 1461 1585 1215 995 913 848 759 668 486 397 369 321 192 106 22 0 14 80 346 253 280 291 236 298
520 656 976 1161 1279 1397 1413 1335 1238 1124 1122 1319 1515 1686 1692 1411 1288 1310 1326 1349 1532 1217 1042 956 840 687 506 406 330 251 115 65 14 0 0 0 25 507 314 349 564 543 589
270 487 746 1033 1143 1270 1361 1248 1076 977 1028 1249 1365 1370 1324 1234 1123 1001 928 1162 1208 1326 1027 894 717 498 350 228 160 36 0 0 2 0 0 0 14 723 390 667 693 603 566
54 162 483 829 859 906 978 932 896 916 981 1082 1182 1241 1141 825 674 743 764 825 1071 961 856 646 437 353 215 125 56 0 0 0 0 0 0 0 29 752 580 823 807 587 479
0 1 56 291 487 472 582 634 706 789 819 879 956 975 867 667 519 515 569 598 616 672 671 579 338 237 206 153 87 25 0 6 0 0 0 0 112 814 918 1031 819 545 393
0 0 0 30 39 115 226 430 517 568 621 646 698 648 585 542 554 561 445 450 511 425 353 306 229 169 163 118 70 32 14 15 0 0 0 0 618 1053 1226 1155 849 593 443
0 0 0 0 0 50 130 356 439 502 462 458 408 370 384 234 260 458 440 354 403 315 237 142 71 44 15 7 13 12 7 0 0 0 0 0 281 1219 1518 1354 1035 711 540
0 0 0 0 0 26 288 162 41 267 161 134 40 57 162 163 146 364 540 363 262 296 195 77 19 0 1 0 0 0 0 0 0 0 0 0 80 966 1669 1455 1183 904 702
0 0 0 0 0 0 15 17 7 10 3 1 0 0 2 57 184 292 368 414 337 252 192 142 13 0 0 0 0 0 0 0 0 0 0 0 44 944 1675 1626 1374 1094 895
0 0 0 0 0 0 0 0 0 1 2 1 0 1 2 1 0 1 117 129 4 34 194 130 27 21 0 0 0 0 0 0 0 0 0 0 0 728 1424 1777 1466 1253 943
0 0 0 0 0 0 0 0 0 0 0 0 0 0 0 2 2 1 1 0 0 1 12 47 81 111 16 0 1 0 0 0 0 0 0 0 0 104 1028 1595 1817 1575 1379
0 0 0 0 0 0 0 0 0 0 0 0 0 0 0 2 1 2 2 3 4 3 0 0 0 0 25 78 115 1 1 0 0 0 0 0 0 0 231 1134 1450 1812 1771
0 0 0 0 0 0 0 0 0 0 0 0 0 0 0 0 2 2 2 3 4 2 0 0 0 0 0 0 2 5 72 100 43 8 0 0 0 0 0 24 352 777 1054
0 0 0 0 0 0 0 0 0 0 0 0 0 0 0 0 1 0 0 3 2 1 0 0 1 0 2 0 0 0 0 72 148 43 18 37 0 0 0 0 0 0 10
0 0 0 0 0 0 0 0 0 0 0 0 0 0 0 0 1 0 0 0 0 0 0 0 0 0 0 0 0 0 0 0 3 0 5 0 0 1 3 1 0 0 0
0 0 0 0 0 0 0 0 0 0 0 0 0 0 0 0 0 0 0 0 0 0 0 0 0 0 0 0 0 0 0 0 0 0 7 0 0 6 4 0 0 15 0
0 0 0 0 0 0 0 0 0 0 0 0 0 0 0 0 0 0 0 0 0 0 0 0 0 0 0 0 0 0 0 0 0 0 0 0 0 0 0 0 3 23 19
0 0 0 0 0 0 0 0 0 0 0 0 0 0 0 0 0 0 0 0 0 0 0 0 0 0 0 0 0 0 0 0 0 0 0 0 0 0 0 0 1 0 4
0 0 0 0 0 0 0 0 0 0 0 0 0 0 0 0 0 0 0 0 0 0 0 0 0 0 0 0 0 0 1 0 0 0 0 0 0 0 0 0 0 0 4
0 0 0 0 0 0 0 0 0 0 0 0 0 0 0 0 0 0 0 0 0 0 0 0 0 0 0 0 0 0 0 0 24 0 0 0 0 0 0 0 0 0 0
0 0 0 0 0 0 0 0 0 0 0 0 0 0 0 0 0 0 0 0 0 0 0 0 0 0 0 0 0 0 0 0 0 5 0 0 0 0 0 0 0 0 0
0 0 0 0 0 0 0 0 0 0 0 0 0 0 0 0 0 0 0 0 0 0 0 0 0 0 0 0 0 0 0 0 0 0 1 0 0 0 0 0 0 0 0
CIN
-75 -20 -24 -46 -68 -72 -65 -48 -39 -20 -2 -0 -1 -0 -0 -0 -0 -1 -16 -22 -1 -0 -0 -3 -31 -59 -45 -22 -11 -0 -0 -0 -0 -0 -0 -10 -17 -4 -4 -5 -12 -20 -0
-65 -26 -28 -44 -48 -50 -38 -33 -35 -27 -18 -7 -6 -3 -1 -0 -1 -2 -4 -4 -0 -0 -4 -11 -28 -6 -1 -3 -7 -20 -10 -6 -4 -1 -0 -19 -33 -3 -12 -29 -27 -51 -36
-90 -67 -25 -46 -37 -21 -8 -4 -7 -5 -6 -11 -13 -7 -1 -1 -0 -0 -1 -1 -0 -0 -0 -15 -45 -16 -11 -15 -4 -1 -14 -42 -37 -44 -91 -180 -75 -69 -49 -52 -52 -68 -72
-82 -56 -33 -42 -43 -27 -16 -6 -2 -0 -0 -0 -0 -0 -1 -1 -2 -4 -2 -1 -0 -0 -3 -6 -30 -39 -56 -64 -57 -51 -50 -57 -63 -62 -130 -161 -211 -65 -152 -128 -128 -139 -135
-65 -50 -37 -49 -52 -36 -30 -23 -12 -7 -4 -1 -0 -0 -0 -0 -0 -0 -13 -10 -1 -10 -16 -20 -17 -27 -48 -79 -91 -98 -109 -152 -184 -240 -0 -65 -196 -86 -138 -143 -128 -132 -99
-102 -78 -52 -51 -45 -33 -22 -20 -22 -29 -26 -8 -1 -0 -0 -0 -3 -1 -1 -1 -2 -19 -31 -37 -40 -52 -74 -97 -120 -141 -205 -263 -360 -0 -0 -0 -310 -78 -135 -159 -111 -91 -66
-154 -89 -76 -53 -43 -34 -16 -17 -26 -26 -13 -2 -1 -5 -10 -18 -24 -32 -29 -4 -0 -0 -31 -48 -75 -105 -126 -149 -188 -296 -0 -0 -100 -0 -0 -0 -349 -66 -76 -117 -115 -107 -89
-350 -269 -96 -36 -58 -67 -67 -70 -64 -52 -35 -15 -8 -9 -18 -44 -59 -48 -52 -54 -37 -42 -42 -68 -101 -111 -149 -184 -250 -0 -0 -0 -0 -0 -0 -0 -384 -74 -82 -104 -123 -133 -126
-0 -99 -332 -172 -98 -96 -93 -96 -88 -73 -64 -53 -42 -41 -55 -63 -72 -71 -71 -74 -78 -69 -76 -103 -140 -174 -170 -186 -243 -350 -0 -321 -1 -0 -0 -0 -317 -87 -58 -64 -127 -157 -162
-0 -0 -0 -342 -338 -265 -193 -122 -110 -99 -82 -77 -76 -80 -79 -73 -73 -70 -87 -102 -97 -111 -126 -139 -163 -189 -204 -238 -281 -363 -451 -488 -0 -0 -0 -0 -130 -75 -47 -61 -89 -155 -184
-0 -0 -0 -0 -0 -359 -267 -138 -108 -96 -112 -109 -119 -133 -126 -162 -144 -89 -102 -125 -125 -134 -142 -177 -235 -261 -270 -186 -215 -249 -415 -0 -0 -0 -0 -0 -177 -50 -40 -58 -86 -132 -172
-0 -0 -0 -0 -0 -408 -168 -248 -352 -166 -236 -252 -116 -321 -228 -212 -210 -115 -87 -120 -143 -120 -149 -209 -284 -0 -130 -0 -0 -0 -0 -0 -0 -0 -0 -0 -284 -77 -43 -54 -72 -92 -124
-0 -0 -0 -0 -0 -0 -453 -307 -50 -46 -0 -0 -0 -0 -57 -313 -215 -168 -118 -102 -121 -121 -151 -173 -286 -0 -0 -0 -0 -0 -0 -0 -0 -0 -0 -0 -284 -90 -38 -35 -52 -64 -77
-0 -0 -0 -0 -0 -0 -0 -0 -0 -0 -0 -0 -0 -0 -0 -0 -0 -0 -167 -188 -44 -196 -129 -179 -237 -250 -0 -0 -0 -0 -0 -0 -0 -0 -0 -0 -0 -123 -58 -31 -46 -58 -76
-0 -0 -0 -0 -0 -0 -0 -0 -0 -0 -0 -0 -0 -0 -0 -0 -0 -0 -0 -0 -0 -0 -133 -101 -164 -141 -75 -56 -88 -0 -0 -0 -0 -0 -0 -0 -0 -223 -88 -45 -29 -44 -57
-0 -0 -0 -0 -0 -0 -0 -0 -0 -0 -0 -0 -0 -0 -0 -0 -0 -0 -0 -0 -0 -0 -0 -0 -0 -0 -138 -155 -143 -49 -43 -30 -0 -0 -0 -0 -0 -0 -206 -101 -60 -34 -35
-0 -0 -0 -0 -0 -0 -0 -0 -0 -0 -0 -0 -0 -0 -0 -0 -0 -0 -0 -0 -0 -0 -0 -0 -0 -0 -0 -0 -18 -138 -165 -141 -154 -216 -0 -0 -0 -0 -0 -188 -116 -73 -69
-0 -0 -0 -0 -0 -0 -0 -0 -0 -0 -0 -0 -0 -0 -0 -0 -2 -0 -0 -0 -0 -0 -0 -0 -0 -0 -0 -0 -0 -0 -0 -142 -103 -95 -148 -123 -0 -0 -0 -0 -0 -60 -116
-0 -0 -0 -0 -0 -0 -0 -0 -0 -0 -0 -0 -0 -0 -0 -0 -2 -0 -0 -0 -0 -0 -0 -0 -0 -0 -0 -0 -0 -0 -0 -0 -39 -0 -0 -0 -0 -0 -0 -0 -0 -0 -0
-0 -0 -0 -0 -0 -0 -0 -0 -0 -0 -0 -0 -0 -0 -0 -0 -0 -0 -0 -0 -0 -0 -0 -0 -0 -0 -0 -0 -0 -0 -0 -0 -0 -0 -1 -0 -0 -0 -0 -0 -0 -0 -0
-0 -0 -0 -0 -0 -0 -0 -0 -0 -0 -0 -0 -0 -0 -0 -0 -0 -0 -0 -0 -0 -0 -0 -0 -0 -0 -0 -0 -0 -0 -0 -0 -0 -0 -0 -0 -0 -0 -0 -0 -0 -0 -0
-0 -0 -0 -0 -0 -0 -0 -0 -0 -0 -0 -0 -0 -0 -0 -0 -0 -0 -0 -0 -0 -0 -0 -0 -0 -0 -0 -0 -0 -0 -0 -0 -0 -0 -0 -0 -0 -0 -0 -0 -0 -0 -0
-0 -0 -0 -0 -0 -0 -0 -0 -0 -0 -0 -0 -0 -0 -0 -0 -0 -0 -0 -0 -0 -0 -0 -0 -0 -0 -0 -0 -0 -1 -0 -0 -0 -0 -0 -0 -0 -0 -0 -0 -0 -0 -0
-0 -0 -0 -0 -0 -0 -0 -0 -0 -0 -0 -0 -0 -0 -0 -0 -0 -0 -0 -0 -0 -0 -0 -0 -0 -0 -0 -0 -0 -0 -0 -0 -0 -0 -0 -0 -0 -0 -0 -0 -0 -0 -0
-0 -0 -0 -0 -0 -0 -0 -0 -0 -0 -0 -0 -0 -0 -0 -0 -0 -0 -0 -0 -0 -0 -0 -0 -0 -0 -0 -0 -0 -0 -0 -0 -0 -1 -0 -0 -0 -0 -0 -0 -0 -0 -0
-0 -0 -0 -0 -0 -0 -0 -0 -0 -0 -0 -0 -0 -0 -0 -0 -0 -0 -0 -0 -0 -0 -0 -0 -0 -0 -0 -0 -0 -0 -0 -1 -0 -1 -1 -0 -0 -0 -0 -0 -0 -0 -0
Wind_Speed
5 4 8 11 12 12 12 12 12 12 13 13 15 15 15 15 14 14 14 14 14 13 14 13 13 13 13 12 12 13 12 11 10 12 13 14 14 13 14 12 11 9 11
10 7 8 11 12 13 12 12 11 12 13 13 13 14 14 15 14 14 13 12 13 13 12 12 12 12 12 11 11 11 10 9 8 9 10 12 13 13 13 12 10 8 10
12 11 9 10 12 11 11 11 11 11 11 12 13 13 13 13 13 13 12 12 12 11 11 11 11 11 10 10 10 10 9 9 8 8 9 4 4 11 11 10 9 9 8
11 7 7 11 12 11 11 10 11 11 11 10 11 11 12 12 11 11 10 9 9 10 10 9 9 9 8 7 8 8 8 8 6 3 2 2 3 7 11 10 9 8 7
9 5 8 11 11 11 11 12 11 11 11 10 10 10 10 10 10 9 9 9 8 9 9 8 7 6 6 6 6 6 5 4 2 2 3 4 4 7 11 12 10 9 8
8 5 8 10 11 11 10 10 10 11 11 11 10 9 9 9 9 7 7 6 7 8 8 7 6 4 4 4 5 6 6 6 6 5 5 6 6 9 12 13 11 9 10
6 5 7 11 11 11 11 10 10 10 9 9 9 8 8 7 7 7 6 5 5 6 6 5 5 4 1 2 5 5 5 5 3 4 6 5 5 10 13 12 13 11 10
8 6 5 8 10 11 11 11 10 10 10 9 8 7 5 5 5 5 6 6 7 6 4 3 2 3 3 3 4 6 7 6 0 3 4 4 8 12 16 14 13 12 11
11 9 5 5 6 4 7 8 9 9 9 9 7 5 5 4 3 3 4 5 5 5 6 7 7 7 6 6 7 7 8 9 5 3 6 4 10 16 17 14 14 14 13
11 9 7 6 4 3 2 2 8 9 8 8 6 5 4 3 4 4 6 8 8 8 7 7 8 8 9 10 9 9 9 10 6 5 3 4 8 16 17 15 15 15 15
10 8 6 6 5 3 3 2 3 4 3 3 4 6 3 1 3 6 7 8 9 8 8 7 8 9 8 8 9 9 9 4 5 5 3 8 10 18 18 16 17 16 16
7 7 6 6 6 6 4 4 2 3 3 4 7 7 2 3 4 6 7 6 6 6 6 6 8 8 7 4 4 8 4 5 4 5 5 9 11 15 19 17 16 16 16
4 6 7 7 6 6 6 6 5 5 5 6 9 9 6 5 6 6 4 3 2 4 3 4 5 4 5 5 5 4 5 5 4 4 6 10 10 13 16 16 16 17 17
7 6 7 8 6 6 5 6 6 6 5 5 6 9 6 4 5 5 4 6 6 4 4 3 3 6 6 6 7 8 6 5 4 4 6 11 10 13 16 17 18 18 18
8 6 8 8 6 5 7 5 6 6 6 6 8 10 8 6 6 5 6 5 5 5 6 5 5 5 5 6 8 8 8 6 6 4 4 11 12 13 18 20 20 21 21
6 7 6 7 5 5 7 7 6 5 7 8 8 8 10 7 7 7 6 6 5 5 5 4 4 4 4 5 5 5 6 5 6 6 5 6 13 14 17 20 21 21 21
4 5 7 6 6 6 6 7 7 7 7 7 6 8 10 9 8 8 7 7 8 7 8 6 7 4 5 5 6 6 5 5 5 5 5 6 8 9 13 16 19 21 22
5 6 6 6 7 6 7 6 7 6 7 7 6 7 8 8 10 8 8 8 8 8 8 8 7 7 7 7 6 4 5 4 5 6 7 9 10 10 12 21 20 22 17
5 6 8 7 8 7 7 7 7 6 8 6 6 7 9 10 9 8 7 6 7 6 8 7 6 7 8 8 8 5 5 5 6 7 10 13 13 11 9 15 18 17 21
6 6 6 6 8 7 7 7 5 7 7 6 7 7 7 8 8 6 7 7 6 7 8 8 5 6 6 8 7 7 5 4 8 7 9 11 12 13 14 13 10 8 15
5 7 6 8 7 5 4 4 6 7 5 6 7 6 8 7 7 7 5 7 6 8 7 9 6 6 9 11 4 5 4 3 12 8 8 10 12 11 14 11 9 8 11
6 5 6 7 7 6 3 3 4 4 4 5 5 8 9 9 8 10 7 8 8 6 9 11 10 4 5 9 5 3 5 5 9 5 7 9 12 8 12 12 12 13 10
6 6 7 7 7 7 7 5 4 5 4 6 5 6 7 9 9 9 9 8 9 8 8 8 9 11 7 6 12 5 5 4 8 4 6 9 12 9 10 9 11 12 12
5 6 6 5 8 7 7 8 8 5 6 2 3 3 6 8 9 9 9 9 8 6 9 8 7 5 6 8 4 7 5 2 6 6 5 7 8 10 11 7 7 10 10
7 7 6 8 7 6 8 8 7 7 4 3 4 7 6 6 7 7 7 7 7 6 7 8 8 9 7 4 4 3 3 4 5 3 7 10 8 6 6 5 5 6 7
6 7 7 8 6 7 8 7 8 8 7 6 5 5 4 4 4 6 7 6 6 6 8 7 7 8 8 5 4 4 4 3 5 2 4 9 11 7 5 8 8 7 9
Wind_Direction
116 107 113 107 100 94 90 88 86 79 74 72 80 77 73 68 66 73 85 88 84 78 73 75 74 76 81 84 87 88 86 88 95 105 105 100 93 114 108 103 99 95 97
128 119 103 107 104 103 104 104 101 95 92 87 84 81 77 72 65 61 56 59 77 79 81 80 79 78 77 76 73 76 80 81 81 84 91 96 92 106 108 105 102 105 105
118 114 109 109 107 107 109 109 103 97 91 94 96 92 85 83 78 72 65 62 64 67 76 84 90 84 76 69 66 72 75 75 77 80 74 73 74 105 111 113 116 115 115
110 114 116 109 109 109 109 108 103 101 94 87 86 87 94 93 91 89 83 76 75 71 68 70 81 90 88 78 78 73 67 62 54 24 12 177 143 143 134 131 129 129 127
92 92 109 107 104 108 112 111 108 107 102 95 91 92 86 83 85 90 96 96 91 86 81 74 66 60 52 37 43 57 66 72 46 344 282 266 223 186 164 149 150 153 152
98 95 98 101 103 103 102 107 113 117 115 111 103 94 91 90 88 78 80 92 101 104 104 104 95 73 40 15 6 10 0 5 353 327 302 264 191 195 193 162 161 163 169
100 95 104 104 102 101 103 103 106 105 106 109 111 112 111 112 112 113 104 89 87 98 109 119 134 142 140 332 330 333 334 351 1 344 323 338 175 190 213 178 176 176 180
100 81 69 99 114 120 121 121 120 118 116 115 115 116 117 123 125 133 136 140 140 139 134 136 165 194 208 248 277 300 307 300 359 298 302 295 240 207 215 198 184 186 187
61 61 54 72 79 76 125 128 126 126 126 129 130 138 149 145 163 170 170 177 179 182 180 178 187 201 228 250 265 278 288 299 309 173 288 280 233 206 218 216 200 194 193
55 47 32 46 74 98 59 121 140 139 141 147 156 173 187 183 200 229 231 222 211 203 204 207 215 215 215 222 238 253 270 288 298 303 261 279 230 208 219 215 223 208 201
46 40 25 26 26 71 139 152 139 136 140 70 357 324 295 315 269 249 239 242 234 225 227 235 232 227 232 251 261 261 262 256 260 274 224 249 244 224 224 219 224 223 214
36 23 23 19 14 29 60 26 113 51 52 38 28 356 338 318 271 257 255 284 294 276 279 265 255 260 244 235 249 260 251 261 256 265 271 244 256 240 226 224 227 234 231
38 31 16 13 21 35 42 53 47 48 42 37 27 19 13 30 15 8 18 357 339 323 279 295 306 279 284 283 263 251 245 254 257 263 266 267 260 248 231 232 232 237 240
47 24 13 16 27 48 65 65 63 60 51 51 38 29 25 21 35 24 23 25 26 3 355 325 286 272 259 257 263 280 253 238 244 253 262 262 252 232 231 236 238 238 240
52 22 15 14 32 50 70 66 70 68 61 59 48 36 31 24 29 31 35 23 15 355 5 359 350 338 304 278 264 252 265 271 262 260 258 259 255 236 234 236 235 236 237
44 32 14 22 30 60 71 77 72 63 67 61 56 44 36 37 29 29 24 25 21 14 357 338 336 326 322 325 331 310 283 275 268 264 267 269 245 241 236 238 242 240 241
25 28 23 25 32 66 73 78 73 68 63 57 51 48 44 44 37 32 28 22 10 7 8 351 2 354 360 350 351 338 327 325 313 311 305 306 304 281 264 266 269 264 254
45 24 36 32 43 75 80 80 76 66 68 60 49 43 39 41 46 42 34 24 6 11 8 6 359 6 5 353 327 317 306 306 316 335 6 14 22 19 15 25 16 19 353
60 32 28 31 42 80 88 88 82 68 70 62 54 49 39 38 41 47 41 27 19 18 17 10 4 3 4 346 327 315 325 329 23 31 41 36 24 27 22 11 5 18 20
75 54 43 33 37 51 81 93 81 75 67 52 51 46 36 42 38 45 42 34 31 32 24 19 11 10 11 339 320 323 324 24 31 42 49 33 15 23 26 8 347 3 5
59 61 42 52 16 58 64 87 80 78 71 58 52 43 48 41 39 40 31 35 31 36 21 19 3 5 14 356 333 346 341 92 43 40 42 34 19 16 17 6 3 351 1
115 87 58 54 40 41 70 79 99 94 73 91 65 43 41 40 33 47 35 36 29 26 29 25 25 1 360 11 358 318 1 338 12 36 41 30 11 10 10 0 16 5 15
105 102 77 56 56 46 59 77 64 60 56 70 45 51 29 34 39 41 37 39 35 34 31 28 24 25 20 358 33 22 357 340 326 359 29 29 358 10 356 352 11 354 15
121 101 99 83 71 63 62 74 80 90 90 55 76 73 47 31 34 44 41 38 35 32 38 34 26 26 23 31 3 16 27 283 359 330 4 24 351 358 346 343 359 347 359
145 122 113 83 72 66 69 84 84 79 83 90 61 65 43 32 32 30 44 42 42 39 41 40 28 28 30 35 22 337 14 349 39 317 319 336 344 338 334 347 347 335 349
130 116 105 98 84 71 76 79 96 96 81 68 57 63 49 35 29 23 39 43 38 42 40 38 25 23 22 20 14 10 26 5 346 340 306 326 326 327 319 345 341 337 349